User: anonymous   Login
Location: Peebles
(55.6412°N, 3.1714°W)
Time: 03:38:07
(UTC+01:00)
Language:

FENGYUN 1C DEB - Orbit

View from above orbital plane
View from above orbital plane
View from above satellite
View from above satellite

Ground track
Ground track

The orbit data is extracted from the following two-line orbital elements,

1 31628U 99025CAJ 22181.47579832  .00000922  00000-0  88029-3 0  9997
2 31628 102.2742   6.0268 0185232 323.3362  35.5220 13.77276031758830
Epoch (UTC): 30 June 2022 11:25:08
Eccentricity: 0.0185232
inclination: 102.2742°
perigee height: 837 km
apogee height: 1110 km
right ascension of ascending node: 6.0268°
argument of perigee: 323.3362°
revolutions per day: 13.77276031
mean anomaly at epoch: 35.5220°
orbit number at epoch: 75883

The dashed part of the orbit path shows where the satellite is in the earth's shadow,  

DLR